Central Point, OR

12:22 AM PDT on September 29, 2016 (GMT -0700)
Rogue Valley International-Medford

Weather History for KMFR - July, 2012

Change the Weather History Date:

Monday, July 2, 2012

  Actual Average Record
Temperature  
Mean Temperature 71 °F 71 °F  
Max Temperature 85 °F 87 °F 108 °F (1922)
Min Temperature 57 °F 55 °F 38 °F (1962)
Degree Days  
Heating Degree Days 0 0  
Month to date heating degree days 0 1  
Since 1 June heating degree days 94 55  
Since 1 July heating degree days 0 1  
Cooling Degree Days 6 7  
Month to date cooling degree days 15 13  
Year to date cooling degree days 139 159  
Since 1 June cooling degree days 87 121  
Growing Degree Days 21 (Base 50)    
Moisture  
Dew Point 53 °F    
Average Humidity 56    
Maximum Humidity 86    
Minimum Humidity 25    
Precipitation  
Precipitation 0.00 in 0.01 in 0.30 in (1978)
Month to date precipitation 0.01 0.02  
Year to date precipitation 14.06 9.48  
Snow  
Snow 0.00 in 0.00 in - ()
Month to date snowfall 0.0 0.0  
Since 1 July snowfall 0.0 0.0  
Snow Depth 0.00 in    
Sea Level Pressure  
Sea Level Pressure 29.90 in    
Wind  
Wind Speed 7 mph (NW)    
Max Wind Speed 20 mph    
Max Gust Speed 26 mph    
Visibility 10 miles    
Events      
T = Trace of Precipitation, MM = Missing Value Source: NWS Daily Summary

Daily Weather History Graph

Daily Weather History Graph

Search for Another Location

Airport or City:

Trip Planner

Search our weather history database for the weather conditions in past years. The results will help you decide how hot, cold, wet, or windy it might be!

Date:

Astronomy

Jul. 02, 2012 Rise Set
Actual Time 5:39 AM PDT 8:51 PM PDT
Civil Twilight 5:04 AM PDT 9:26 PM PDT
Nautical Twilight 4:20 AM PDT 10:10 PM PDT
Astronomical Twilight 3:26 AM PDT 11:04 PM PDT
Moon 7:59 PM PDT (7/2) 4:32 AM PDT (7/2)
Length of Visible Light 16h 21m
Length of Day
15h 12m
Waxing Gibbous, 99% of the Moon is Illuminated
Jul 2
Waxing Gibbous
Jul 3
Full
Jul 10
Last Quarter
Jul 18
New
Jul 26
First Quarter

Hourly Weather History & Observations

Time (PDT) Temp. Heat Index Dew Point Humidity Pressure Visibility Wind Dir Wind Speed Gust Speed Precip Events Conditions
12:53 AM 64.9 °F - 57.0 °F 75% 29.94 in 10.0 mi Calm Calm - N/A   Clear
1:53 AM 63.0 °F - 55.9 °F 78% 29.94 in 10.0 mi Calm Calm - N/A   Clear
2:53 AM 63.0 °F - 55.9 °F 78% 29.94 in 10.0 mi NW 3.5 mph - N/A   Clear
3:53 AM 57.9 °F - 54.0 °F 87% 29.94 in 10.0 mi NE 4.6 mph - N/A   Clear
4:53 AM 59.0 °F - 54.0 °F 83% 29.94 in 10.0 mi Calm Calm - N/A   Clear
5:53 AM 57.0 °F - 54.0 °F 89% 29.94 in 10.0 mi Calm Calm - N/A   Clear
6:53 AM 60.1 °F - 54.0 °F 80% 29.95 in 10.0 mi Calm Calm - N/A   Clear
7:53 AM 63.0 °F - 55.0 °F 75% 29.95 in 10.0 mi Calm Calm - N/A   Clear
8:53 AM 64.9 °F - 55.9 °F 73% 29.95 in 10.0 mi Calm Calm - N/A   Clear
9:53 AM 69.1 °F - 57.0 °F 65% 29.92 in 10.0 mi NNW 3.5 mph - N/A   Scattered Clouds
10:53 AM 71.1 °F - 57.0 °F 61% 29.91 in 10.0 mi WSW 4.6 mph - N/A   Scattered Clouds
11:53 AM 75.9 °F - 57.0 °F 52% 29.89 in 10.0 mi NW 5.8 mph - N/A   Scattered Clouds
12:53 PM 78.1 °F - 57.0 °F 48% 29.86 in 10.0 mi Variable 3.5 mph - N/A   Scattered Clouds
1:53 PM 82.9 °F 81.8 °F 53.1 °F 36% 29.85 in 10.0 mi NW 11.5 mph - N/A   Clear
2:53 PM 84.0 °F - 45.0 °F 25% 29.83 in 10.0 mi NNW 11.5 mph 18.4 mph N/A   Partly Cloudy
3:53 PM 84.9 °F - 48.0 °F 28% 29.83 in 10.0 mi NW 13.8 mph 21.9 mph N/A   Scattered Clouds
4:53 PM 84.9 °F 83.2 °F 53.1 °F 33% 29.81 in 10.0 mi West 15.0 mph 20.7 mph N/A   Clear
5:53 PM 84.0 °F - 51.1 °F 32% 29.80 in 10.0 mi NW 13.8 mph 18.4 mph N/A   Clear
6:53 PM 82.9 °F - 46.0 °F 27% 29.82 in 10.0 mi WNW 17.3 mph 26.5 mph N/A   Clear
7:53 PM 77.0 °F - 48.0 °F 36% 29.86 in 10.0 mi WNW 13.8 mph 21.9 mph N/A   Clear
8:53 PM 72.0 °F - 51.1 °F 48% 29.89 in 10.0 mi North 11.5 mph 18.4 mph N/A   Clear
9:53 PM 66.9 °F - 52.0 °F 59% 29.94 in 10.0 mi North 10.4 mph - N/A   Clear
10:53 PM 64.9 °F - 48.9 °F 56% 29.97 in 10.0 mi North 5.8 mph - N/A   Clear
11:53 PM 63.0 °F - 50.0 °F 63% 29.99 in 10.0 mi North 6.9 mph - N/A   Scattered Clouds